Iowa City, IA

7:09 AM CST on December 06, 2019 (GMT -0600)
Iowa City Municipal

Weather History for KIOW - October, 2019

Change the Weather History Date:

Sunday, October 13, 2019

  Actual Average Record
Temperature  
Mean Temperature 44 °F 53 °F  
Max Temperature 53 °F 64 °F 89 °F (1975)
Min Temperature 35 °F 42 °F 28 °F (2006)
Degree Days  
Heating Degree Days 21 12  
Month to date heating degree days 129 134  
Since 1 July heating degree days 136 246  
Cooling Degree Days 0 0  
Month to date cooling degree days 18 10  
Year to date cooling degree days 1175 912  
Moisture  
Dew Point 32 °F    
Average Humidity 66    
Maximum Humidity 85    
Minimum Humidity 46    
Precipitation  
Precipitation 0.00 in 0.10 in 1.61 in (2014)
Month to date precipitation 1.60 1.15  
Year to date precipitation 38.57 30.69  
Sea Level Pressure  
Sea Level Pressure 29.92 in    
Wind  
Wind Speed 10 mph (West)    
Max Wind Speed 24 mph    
Max Gust Speed 34 mph    
Visibility 10 miles    
Events      
T = Trace of Precipitation, MM = Missing Value Source: NWS Daily Summary

Daily Weather History Graph

Daily Weather History Graph

Search for Another Location

Airport or City:

Astronomy

Oct. 13, 2019 Rise Set
Actual Time 7:15 AM CDT 6:28 PM CDT
Civil Twilight 6:47 AM CDT 6:56 PM CDT
Nautical Twilight 6:15 AM CDT 7:28 PM CDT
Astronomical Twilight 5:43 AM CDT 8:00 PM CDT
Moon 6:51 PM CDT (10/13) 6:49 AM CDT (10/13)
Length of Visible Light 12h 08m
Length of Day
11h 12m
Full, 100% of the Moon is Illuminated
Oct 13
Full
Oct 13
Full
Oct 21
Last Quarter
Oct 27
New
Nov 4
First Quarter

Hourly Weather History & Observations

Time (CDT) Temp. Windchill Dew Point Humidity Pressure Visibility Wind Dir Wind Speed Gust Speed Precip Events Conditions
12:52 AM 39.0 °F 36.8 °F 32.0 °F 76% 29.88 in 10.0 mi SSW 3.5 mph - N/A   Partly Cloudy
1:52 AM 39.0 °F 34.0 °F 32.0 °F 76% 29.88 in 10.0 mi SSW 6.9 mph - N/A   Clear
2:52 AM 37.9 °F 32.7 °F 32.0 °F 79% 29.87 in 10.0 mi SSW 6.9 mph - N/A   Mostly Cloudy
3:52 AM 39.0 °F 34.0 °F 32.0 °F 76% 29.86 in 10.0 mi SW 6.9 mph - N/A   Overcast
4:52 AM 39.0 °F 33.4 °F 32.0 °F 76% 29.87 in 10.0 mi SW 8.1 mph - N/A   Overcast
5:52 AM 37.0 °F 33.3 °F 30.9 °F 79% 29.87 in 10.0 mi SW 4.6 mph - N/A   Partly Cloudy
6:52 AM 35.1 °F 31.0 °F 30.0 °F 82% 29.89 in 10.0 mi SW 4.6 mph - N/A   Clear
7:52 AM 36.0 °F 31.1 °F 30.0 °F 79% 29.90 in 10.0 mi SW 5.8 mph - N/A   Clear
8:52 AM 39.9 °F 33.9 °F 32.0 °F 73% 29.91 in 10.0 mi WSW 9.2 mph 18.4 mph N/A   Scattered Clouds
9:52 AM 45.0 °F 37.1 °F 32.0 °F 60% 29.90 in 10.0 mi West 19.6 mph 25.3 mph N/A   Clear
10:52 AM 48.9 °F - 33.1 °F 54% 29.90 in 10.0 mi WSW 12.7 mph 24.2 mph N/A   Clear
11:52 AM 50.0 °F - 30.9 °F 48% 29.90 in 10.0 mi West 16.1 mph 33.4 mph N/A   Mostly Cloudy
12:52 PM 50.0 °F - 30.9 °F 48% 29.90 in 10.0 mi WNW 16.1 mph 25.3 mph N/A   Overcast
1:52 PM 50.0 °F - 30.9 °F 48% 29.91 in 10.0 mi West 18.4 mph 26.5 mph N/A   Overcast
2:52 PM 52.0 °F - 33.1 °F 49% 29.89 in 10.0 mi West 16.1 mph 23.0 mph N/A   Mostly Cloudy
3:52 PM 52.0 °F - 32.0 °F 47% 29.90 in 10.0 mi West 18.4 mph 27.6 mph N/A   Mostly Cloudy
4:52 PM 50.0 °F - 32.0 °F 50% 29.93 in 10.0 mi NW 11.5 mph 20.7 mph N/A   Overcast
5:52 PM 50.0 °F - 32.0 °F 50% 29.95 in 10.0 mi NW 13.8 mph - N/A   Overcast
6:52 PM 48.0 °F - 32.0 °F 54% 29.95 in 10.0 mi NW 5.8 mph - N/A   Overcast
7:52 PM 48.0 °F - 33.1 °F 56% 29.98 in 10.0 mi NW 4.6 mph - N/A   Overcast
8:52 PM 46.9 °F - 34.0 °F 61% 29.99 in 10.0 mi NW 4.6 mph - N/A   Overcast
9:52 PM 46.9 °F - 33.1 °F 59% 30.00 in 10.0 mi WNW 4.6 mph - N/A   Overcast
10:52 PM 43.0 °F 40.3 °F 33.1 °F 68% 30.01 in 10.0 mi WNW 4.6 mph - N/A   Partly Cloudy
11:52 PM 37.9 °F 34.4 °F 33.1 °F 83% 30.03 in 10.0 mi West 4.6 mph - N/A   Clear